Hourly Data Report for October 10, 2016

All times are specified in Local Standard Time (LST). Add 1 hour to adjust for Daylight Saving Time where and when it is observed.

GRISE FIORD CLIMATE
NUNAVUT

76°25'22.040" N
82°54'08.020" W
44.50 m
2402351
71971
NGC

Download Data

Hourly Data (October 2016)
Hourly Data Report for October 10, 2016
Temp Definition
°C
Dew Point Temp Definition
°C
Rel Hum Definition
%
Wind Dir Definition
10's deg

Wind Spd Definition
km/h
Visibility Definition
km
Stn Press Definition
kPa
Hmdx Definition


Wind Chill Definition


Weather Definition


TIME
00:00 -10.9 -13.1 84 9 5   100.42   -14 LegendNANA
01:00 -9.6 -11.8 84 12 8   100.41   -14 LegendNANA
02:00 -9.7 -11.5 87 12 4   100.39   -12 LegendNANA
03:00 -11.3 -13.8 82 12 11   100.38   -17 LegendNANA
04:00 -9.7 -10.8 91 9 7   100.37   -14 LegendNANA
05:00 -10.7 -12.7 86 9 6   100.35   -14 LegendNANA
06:00 -11.2 -13.2 85 12 7   100.35   -15 LegendNANA
07:00 -10.6 -13.1 82 12 9   100.32   -16 LegendNANA
08:00 -10.3 -12.3 86 11 8   100.31   -15 LegendNANA
09:00 -10.2 -12.3 85 9 5   100.29   -13 LegendNANA
10:00 -9.7 -12.1 82 12 7   100.27   -14 LegendNANA
11:00 -10.6 -13.4 80 11 9   100.27   -16 LegendNANA
12:00 -8.4 -12.3 73 6 5   100.27   -11 LegendNANA
13:00 -8.3 -11.3 79 12 8   100.27   -12 LegendNANA
14:00 -8.5 -11.0 82 13 9   100.30   -13 LegendNANA
15:00 -7.9 -10.5 81 11 5   100.31   -11 LegendNANA
16:00 -7.6 -9.9 84 12 7   100.32   -11 LegendNANA
17:00 -7.6 -9.7 84 11 6   100.34   -11 LegendNANA
18:00 -7.3 -9.6 83 24 1   100.35   -8 LegendNANA
19:00 -7.7 -10.0 84 11 4   100.37   -10 LegendNANA
20:00 -7.1 -9.8 81 11 3   100.36   -9 LegendNANA
21:00 -7.2 -9.9 81 11 6   100.37   -10 LegendNANA
22:00 -7.4 -10.0 82 11 5   100.36   -10 LegendNANA
23:00 -7.0 -10.2 78 0 1   100.35   -8 LegendNANA

Notes on Data Quality.

Legend

  • E = Estimated
  • M = Missing
  • NA = Not Available
  • ‡ = Partner data that is not subject to review by the National Climate Archives
Date modified: